www.pogodaiklimat.ru

Погода и климат >> Архив погоды >> Россия >> Иркутская область >> Качуг


ПОГОДА в Качуге

  • Прогноз погоды в Качуге
  • Монитор погоды в Качуге

АРХИВ ПОГОДЫ в Качуге

Время (UTC), дата Ветер
(напр.,м/с)
 
Видим.   Явления Облачность Т
(С)
Тd
(С)
f
(%)
Тe
(С)
Тes
(С)
Комфортность P
(гПа)
Po
(гПа)
Тmin
(С)
Tmax
(С)
R
(мм)
R24
(мм)
S
(см)
21 12.07 СВ 1 20 км 10/5 1000 м
[Cb cap As op]
+17.0 +14.6 86 +18 +18 1014.3 954.6
00 13.07 С 1 10 км дым 10/4 1000 м
[Cb cap Ac trans Ci ing]
+18.7 +11.9 65 +20 +22 1014.0 954.6 +16.8
03 13.07 З 1 10 км дым 10/5 1000 м
[Cb cap Ci ing]
+21.9 +13.0 57 +25 +31 комфорт 1012.9 954.3
06 13.07 ЮВ 1 10 км дым 8/4 1000 м
[Cu med, cong Ci ing]
+24.9 +13.3 48 +27 +36 жарко 1011.0 953.0
09 13.07 штиль 0 10 км дым 4/3 1000 м
[Cu hum Ci ing]
+27.2 +8.8 31 +27 +34 жарко 1009.0 951.5
12 13.07 С 2 20 км ясно +24.6 +10.1 40 +26 +26 жарко 1008.9 950.9 +27.2
15 13.07 штиль 0 н/о ясно +15.8 +12.1 79 +16 +16 1011.7 951.8
18 13.07 штиль 0 н/о ясно +11.5 +10.2 92 +11 +11 1012.7 951.9
21 13.07 ЮВ 1 20 км 1/0
[Ci ing]
+8.8 +7.8 93 +8 +8 1013.0 951.6
00 14.07 ЮВ 1 20 км 8/0
[Ci ing]
+14.0 +10.2 78 +14 +19 1010.9 950.8 +8.7
03 14.07 ЮВ 2 20 км 3/0
[Ci fib]
+22.1 +12.1 53 +24 +37 комфорт 1007.3 949.0
06 14.07 Ю 2 20 км 9/0
[Ci ing]
+25.7 +9.3 35 +26 +38 жарко 1004.5 946.9
09 14.07 штиль 0 20 км 10/1 1000 м
[Cb cap Ac trans Ci ing]
+27.3 +8.3 30 +27 +31 жарко 1001.7 944.6
12 14.07 штиль 0 20 км 10/4 1000 м
[Cb cap Ac trans Ci ing]
+24.2 +13.0 50 +26 +26 жарко 1001.5 943.9 +27.3
15 14.07 штиль 0 н/о 10/3 1000 м
[Cb cap Ac trans Ci ing]
+19.5 +14.9 75 +21 +21 комфорт 1002.2 943.8
18 14.07 штиль 0 н/о 8/0
[Ac trans Ci ing]
+16.2 +13.9 86 +16 +16 1002.3 943.2
21 14.07 Ю 1 20 км 10/3 1000 м
[Cb cap Ac trans Ci ing]
+14.1 +12.3 89 +14 +14 1002.4 942.9
00 15.07 Ю 1 20 км 10/4 1000 м
[Cb cap Ac trans Ci ing]
+16.0 +12.3 79 +17 +18 1002.2 943.0 +13.7
03 15.07 штиль 0 20 км в посл. час ливневой дождь 10/5 1000 м
[Cb cap As op]
+18.4 +14.0 76 +19 +21 1002.7 944.0
06 15.07 Ю 2 20 км {ливн. осадки} 10/3 1000 м
[Cb cap Ac trans Ci ing]
+24.9 +9.6 38 +26 +31 жарко 1001.1 943.7
09 15.07 С 1 20 км 10/0
[Ac trans Ci ing]
+28.0 +11.7 36 +29 +34 жарко 999.5 942.7
12 15.07 СЗ 2 20 км 6/0
[Ac trans Ci ing]
+25.0 +14.2 51 +27 +28 жарко 999.7 942.4 +28.4 0.0
15 15.07 СЗ 1 н/о 10/3 1000 м
[Cb cap Ac trans Ci ing]
+20.3 +14.9 71 +24 +24 комфорт 1002.2 943.9
18 15.07 штиль 0 н/о 10/3 1000 м
[Cb cap Ac trans Ci ing]
+18.0 +14.9 82 +18 +18 1003.3 944.5
21 15.07 ЮВ 1 20 км {ливн. осадки} 10/5 1000 м
[Cb cap Ac trans Ci ing]
+17.2 +15.3 89 +18 +18 1005.3 946.2
00 16.07 штиль 0 20 км в посл. час ливневой дождь 10/5 1000 м
[Cb cap Ac trans Ci ing]
+18.2 +16.2 88 +19 +20 1006.4 947.5 +16.4 0.4
03 16.07 ЮВ 2 20 км 10/3 1000 м
[Cb cap As op]
+19.6 +16.3 81 +22 +24 комфорт 1006.6 947.9
06 16.07 ЮЗ 1 20 км 10/5 600 м
[Cb cap As op]
+22.4 +15.8 66 +26 +28 жарко 1006.0 947.9
09 16.07 СЗ 2 20 км {гроза, ливн. осадки} 10/4 600 м
[Cb cap As op]
+21.5 +16.8 75 +25 +26 комфорт 1005.8 947.6
12 16.07 СЗ 2 20 км {гроза} 10/5 600 м
[Cb cap As op]
+19.8 +16.6 82 +23 +23 комфорт 1006.5 947.9 +23.1 0.0
15 16.07 С 1 н/о гроза, ливневой дождь 10/8 600 м
[Cb cap As op]
+18.0 +16.5 91 +19 +19 1008.6 949.5
18 16.07 СЗ 2 н/о в посл. час гроза {ливн. осадки} 10/4 600 м
[Cb cap As op]
+17.3 +16.5 95 +18 +18 1007.1 948.0
21 16.07 З 1 20 км 10/0
[As op]
+17.0 +16.0 94 +18 +18 1007.4 948.1
00 17.07 СЗ 2 500 м туман ?/? +17.0 +16.2 95 +17 +17 1007.0 947.8 +16.7 11
03 17.07 В 1 20 км {туман} 6/3 300 м
[St Ci ing]
+21.5 +16.5 73 +25 +35 комфорт 1006.2 947.9
06 17.07 ЮВ 1 20 км {туман} 3/1 1000 м
[Cu hum Ci ing]
+25.9 +17.2 59 +30 +45 душно 1003.8 946.5
09 17.07 ЮВ 1 20 км 3/3 1000 м
[Cu med, cong Ci ing]
+28.6 +15.5 45 +31 +37 жарко 1001.7 945.0
12 17.07 СВ 2 20 км 3/1 1000 м
[Cu med, cong Ci ing]
+26.8 +15.6 50 +30 +30 душно 1002.1 945.0 +29.1
15 17.07 штиль 0 н/о 4/0
[Ac trans Ci ing]
+19.3 +16.6 84 +21 +21 комфорт 1004.6 946.0
18 17.07 штиль 0 н/о 8/0
[Ci]
+16.6 +15.3 92 +16 +16 1005.4 946.2
21 17.07 штиль 0 20 км 10/0
[Ci ing]
+15.0 +13.7 92 +15 +15 1005.8 946.3
00 18.07 штиль 0 20 км {туман} 8/6 300 м
[St Ci ing]
+17.8 +15.9 89 +18 +20 1006.0 947.0 +14.8
03 18.07 Ю 1 20 км гроза без осадков 10/4 1000 м
[Cb cap Ac trans Ci ing]
+21.3 +17.1 77 +25 +30 комфорт 1005.1 946.8
06 18.07 З 3
{12}
20 км гроза, ливневой дождь 10/5 600 м
[Cb cap Ac trans Ci ing]
+20.1 +17.0 82 +23 +26 комфорт 1004.1 945.7
09 18.07 З 1 20 км {гроза, ливн. осадки} 10/3 1000 м
[Cb cap Ac trans Ci ing]
+22.5 +17.7 74 +28 +30 душно 1004.3 946.4
12 18.07 З 1 20 км {гроза, ливн. осадки} 8/3 1000 м
[Cb cap Ac trans Ci ing]
+21.5 +17.6 78 +26 +26 душно 1004.3 946.2 +25.1 2
15 18.07 СЗ 2 н/о 6/3 1000 м
[Cb cap Ac trans Ci ing]
+19.3 +17.4 89 +22 +22 комфорт 1004.6 946.0
18 18.07 штиль 0 н/о 10/0
[Ac trans Ci ing]
+16.0 +14.9 93 +16 +16 1005.1 945.8
21 18.07 СЗ 1 500 м туман ?/? +15.8 +14.9 94 +16 +16 1004.7 945.4
00 19.07 З 2 10 км в посл. час туман 10/10 300 м
[St]
+16.3 +15.5 95 +16 +16 1004.5 945.3 +15.6
03 19.07 ЮВ 2 20 км 8/5 600 м
[Cb cap Ac trans Ci ing]
+22.5 +17.1 72 +27 +32 душно 1002.2 944.3
06 19.07 Ю 1 20 км 10/8 600 м
[Cb cap Ac trans Ci ing]
+25.7 +16.0 55 +29 +31 душно 999.5 942.4
09 19.07 З 2 20 км 9/5 1000 м
[Cb cap Ac trans Ci ing]
+26.0 +15.4 52 +29 +31 душно 998.1 941.1
12 19.07 СЗ 1 20 км 10/3 1000 м
[Cb cap Ci ing]
+24.8 +13.4 49 +27 +27 жарко 998.7 941.4 +27.6
15 19.07 СЗ 2 н/о 10/5 600 м
[Cb cap Ac trans Ci ing]
+20.5 +15.2 72 +24 +24 комфорт 1000.2 942.1
18 19.07 СВ 1 н/о 10/3 1000 м
[Cb cap As op]
+18.3 +14.2 77 +20 +20 1001.0 942.4

 

Местоположение метеостанции Качуг (Иркутская область, Россия): широта 53.97 долгота 105.90 высота над уровнем моря 521 м.

В архиве по умолчанию представлена погода в Качуге за последнюю неделю. Архивные данные за месяц целиком и за предыдущие месяцы, начиная с января 2011 года, Вы можете получить, выбрав интересующий диапазон дат из раскрывающегося списка и нажав кнопку "Ввод!".


*Определитесь, кто Вы:
робот инопланетянин человек

Внимание! Время в таблицах - всемирное. Для получения местного времени необходимо прибавить поправку, которая равна 8 ч.

Смотрите также архив погоды в соседних городах и на ближайших метеорологических станциях:

Погода в Тырке (Иркутская область, Россия) (91 км)
Погода в Баяндае (Иркутская область, Россия) (100 км)
Погода в Жигалове (Иркутская область, Россия) (106 км)
Погода в Худжире (Иркутская область, Россия) (126 км)
Погода в Узуре (Иркутская область, Россия) (139 км)
Погода в Солнечной (Иркутская область, Россия) (151 км)
Погода в Усть-Ордынском (Иркутская область, Россия) (152 км)
Погода на Большом Ушканьем Острове (Бурятия, Россия) (171 км)
Погода в Караме (Иркутская область, Россия) (171 км)
Погода в Сухой (Бурятия, Россия) (177 км)

Пояснения к столбцам:

Ветер - указаны скорость ветра в м/с - средняя за 10 мин, порывы в срок и между сроками (в фигурных скобках) и направление, откуда дует ветер: С - северный, СВ - северо-восточный, В - восточный, ЮВ - юго-восточный, Ю - южный, ЮЗ - юго-западный, З - западный, СЗ - северо-западный.
Видимость - горизонтальная дальность видимости в метрах или километрах. При видимости от 1 до 10 км при отсутствии осадков обычно наблюдается дымка, при ухудшении видимости до 1 км и менее - туман. В сухую погоду видимость может ухудшаться дымом, пылью или мглою.
Явления - указаны атмосферные явления, наблюдавшиеся в срок или в последний час перед сроком; фигурными скобками обозначены явления, наблюдавшиеся между сроками (за 1-3 часа до срока); квадратными скобками обозначены град или гололедные отложения с указанием их диаметра в мм.
Облачность - указаны через наклонную черту общая и нижняя облачность в баллах и высота нижней границы облаков в метрах; квадратными скобками обозначены формы облаков: Ci - перистые, Cs - перисто-слоистые, Cc - перисто-кучевые, Ac - высококучевые, As - высокослоистые, Sc - слоисто-кучевые, Ns - слоисто-дождевые, Cu - кучевые, Cb - кучево-дождевые. Подробнее классификацию облаков см. в Атласе облаков (PDF).
T - Температура воздуха - температура, измеренная на высоте 2 м над землей.
Td - Температура точки росы - температура, при понижении до которой содержащийся в воздухе водяной пар достигнет насыщения.
f - Относительная влажность воздуха - влажноcть воздуха, измеренная на высоте 2 м над землей.
Te - Эффективная температура - температура, которую ощущает одетый по сезону человек в тени. Характеристика душности погоды. При расчете учитывается влияние влажности воздуха и скорости ветра на теплоощущения человека.
Tes - Эффективная температура на солнце - температура, которую ощущает человек, с поправкой на солнечный нагрев. Характеристика знойности погоды. Зависит от высоты солнца над горизонтом, облачности и скорости ветра. Ночью, в пасмурную погоду, а также при ветре 12 м/с и более поправка равна нулю.
P - Атмосферное давление - приведенное к уровню моря атмосферное давление.
Po - Атмосферное давление - измеренное на уровне метеостанции атмосферное давление.
Tmin - Минимальная температура - минимум температуры воздуха на высоте 2 м над землей.
Tmax - Максимальная температура - максимум температуры воздуха на высоте 2 м над землей.
R - Количество осадков - Количество выпавших осадков за период времени, мм. При наведении курсора мыши на число - период времени, за который выпало указанное количество осадков.
R24 - Количество осадков - Количество выпавших осадков за 24 часа, мм.
S - Снежный покров - Высота снежного покрова, см. При наведении курсора мыши на число - состояние снежного покрова и степень покрытия местности в баллах.